Regional Weather Roundup
Issued by NWS

Home | Current Version | Previous Version | Text Only | Print | Product List | Glossary On
Versions: 1 2 3 4 5 6 7 8 9 10 11 12 13 14 15 16 17 18 19 20 21 22 23 24 25 26 27 28 29 30 31 32 33 34 35 36 37 38 39 40 41 42 43 44 45 46 47 48 49 50
000
ASCA44 KEWX 211420
RWRMX

LATIN AMERICA AND CARIBBEAN REGIONAL WEATHER ROUNDUP
NATIONAL WEATHER SERVICE AUSTIN/SAN ANTONIO TX
800 AM CST SAT JAN 21 2017

NOTE: "FAIR" INDICATED FEW OR NO CLOUDS BELOW 12,000 FEET WITH NO
SIGNIFICANT WEATHER AND/OR OBSTRUCTIONS TO VISIBILITY.

BAJA CALIFORNIA

CITY           SKY/WX    TMP DP  RH WIND       PRES   REMARKS
LORETO         MOCLDY    66  52  59 W17       29.91
LA PAZ         PTCLDY    52  50  93 S8        30.03
MEXICALI       PTCLDY    54  39  58 W12       29.72
S.J. DEL CABO  CLEAR     50  43  76 CALM      30.02R
TIJUANA        MOCLDY    52  41  66 W14       29.81R

NORTHWESTERN MEXICO

CITY           SKY/WX    TMP DP  RH WIND       PRES   REMARKS
CULIACAN       CLEAR     52  46  82 N6        30.02
DURANGO        CLEAR     45  19  36 SE7       30.09  WCI  41
GUAYMAS        CLOUDY    66  57  72 S17       29.81
HERMOSILLO     CLOUDY    59  57  94 SW8       29.84
CD. JUAREZ     RAIN      41  41 100 SW23      29.56  WCI  31
LOS MOCHIS     MOCLDY    54  50  87 E7        30.01
OBREGON        MOCLDY    59  55  88 SE12      29.90

NORTHEASTERN MEXICO

CITY           SKY/WX    TMP DP  RH WIND       PRES   REMARKS
CHIHUAHUA      PTCLDY    52  23  32 SW18      29.76
MATAMOROS      FOG       66  66 100 S7        29.64  VSB 1/4
MONCLOVA       CLEAR     68  18  14 W7        29.74
MONTERREY      CLEAR     59  36  41 S3        29.66S
NUEVO LAREDO   CLEAR     57  52  82 CALM      29.63
PIEDRAS NEGRAS PTCLDY    52  45  76 S8        29.61
REYNOSA        FOG       54  52  94 CALM      29.64  VSB 1
SALTILLO       CLEAR     59  34  38 S7        29.91R
TORREON        PTCLDY    64  27  24 S7        29.84R
CD. VICTORIA   CLEAR     50  50 100 SW6       29.73  WCI  48

WESTERN MEXICO

CITY           SKY/WX    TMP DP  RH WIND       PRES   REMARKS
AGUASCALIENTES CLEAR     37  36  93 S7        30.22  WCI  32
COLIMA         CLEAR     63  55  77 N12       30.13R
DEL BAJIO      CLEAR     39  37  93 CALM      30.26R
GUADALAJARA    CLEAR     39  37  93 CALM      30.19
MANZANILLO     CLEAR     63  59  88 N7        29.95R
MAZATLAN       CLEAR     48  46  93 NE5       30.03R WCI  46
P. VALLARTA    MOCLDY    63  59  88 NE3       30.00R
URUAPAN        CLEAR     45  43  93 CALM      30.20R
ZACATECAS      CLEAR     43  23  45 S12       30.15R WCI  37

CENTRAL MEXICO

CITY           SKY/WX    TMP DP  RH WIND       PRES   REMARKS
CUERNAVACA     PTCLDY    57  41  54 CALM      30.15R
MEXICO CITY    PTCLDY    54  36  50 S6        30.30R
MORELIA        CLEAR     41  37  87 CALM      30.23
POZA RICA      MOSUNNY   66  66 100 S5        29.76S FOG
PUEBLA         MOSUNNY   43  37  81 NW3       30.29
QUERETARO      CLEAR     45  37  76 SW6       30.26R WCI  41
S. LUIS POTOSI CLEAR     52  34  50 SW9G21    30.09S
TAMPICO        FOG       68  68 100 SW6       29.71R VSB 1
TOLUCA         PTCLDY    28  27  93 CALM      30.37R

SOUTHERN MEXICO

CITY           SKY/WX    TMP DP  RH WIND       PRES   REMARKS
ACAPULCO       PTCLDY    72  64  78 NW7       29.96R
B. DE HUATULCO SUNNY     70  64  83 W10       29.97
OAXACA         MOSUNNY   48  39  71 CALM      30.22R
P. ESCONDIDO     N/A    N/A N/A N/A MISG        N/A
VERACRUZ       MOSUNNY   68  66  94 SW3       29.78R
ZIHUATANEJO    PTCLDY    70  64  83 NE3       29.97R

YUCATAN PENINSULA

CITY           SKY/WX    TMP DP  RH WIND       PRES   REMARKS
CAMPECHE       SUNNY     73  72  94 SE12      29.82R
CANCUN         MOSUNNY   81  70  69 SE18      29.89S
CHETUMAL       SUNNY     79  75  89 SE10      29.88
CD. DEL CARMEN SUNNY     77  72  83 SE6       29.83
COZUMEL        MOSUNNY   79  72  78 SE8       29.89R
MERIDA         MOSUNNY   73  70  88 SE12      29.87R
MINATITLAN     SUNNY     75  68  78 NW12      29.81
TAPACHULA      SUNNY     70  66  88 E7        29.97R
TUX. GUTIERREZ SUNNY     63  57  82 CALM      30.02R
VILLAHERMOSA   SUNNY     70  68  94 CALM      29.84R

CENTRAL AMERICA

CITY           SKY/WX    TMP DP  RH WIND       PRES   REMARKS
BELIZE CITY    MOSUNNY   79  77  94 S3        29.87R
MANAGUA        MOSUNNY   79  70  73 SE9       29.97S

CARIBBEAN

CITY           SKY/WX    TMP DP  RH WIND       PRES   REMARKS
ARUBA          MOSUNNY   82  72  69 E14       30.00R
CURACAO        MOSUNNY   79  73  83 NE10      30.03R
KINGSTON       MOSUNNY   77  68  73 NW7       30.03R
NASSAU         MOSUNNY   73  66  78 CALM      30.04R
SAN JUAN       MOSUNNY   79  64  61 W3        30.05R
SANTO DOMINGO  MOSUNNY   77  68  73 N5        30.03R
ST. CROIX      MOSUNNY   81  64  57 N7        30.04
ST. KITTS      MOSUNNY   81  64  57 CALM      30.03R
ST. MAARTEN    MOSUNNY   81  68  65 VRB2      30.03R
ST. THOMAS     SUNNY     81  64  57 N5        30.03

$$




USA.gov is the U.S. government's official web portal to all federal, state and local government web resources and services.